Change the Weather History Date:

Wednesday, January 22, 2014

  Actual Average Record
Temperature  
Mean Temperature 56 °F -  
Max Temperature 64 °F 62 °F 71 °F (2008)
Min Temperature 48 °F 42 °F 35 °F (2000)
Degree Days  
Heating Degree Days 9    
Growing Degree Days 6 (Base 50)    
Moisture  
Dew Point 50 °F    
Average Humidity 81    
Maximum Humidity 100    
Minimum Humidity 47    
Precipitation  
Precipitation 0.20 in - - ()
Sea Level Pressure  
Sea Level Pressure 30.03 in    
Wind  
Wind Speed 8 mph ()    
Max Wind Speed 17 mph    
Max Gust Speed -    
Visibility 7.4 miles    
Events Rain    
Averages and records for this station are not official NWS values.
T = Trace of Precipitation, MM = Missing Value Source: Averaged Metar Reports

Daily Weather History Graph

Daily Weather History Graph

Search for Another Location

Airport or City:

Trip Planner

Search our weather history database for the weather conditions in past years. The results will help you decide how hot, cold, wet, or windy it might be!

Date:

Astronomy

Jan. 22, 2014 Rise Set
Actual Time 8:33 AM CET 6:36 PM CET
Civil Twilight 8:05 AM CET 7:04 PM CET
Nautical Twilight 7:34 AM CET 7:36 PM CET
Astronomical Twilight 7:02 AM CET 8:07 PM CET
Moon No Moon Rise 11:35 AM CET (1/22)
Length of Visible Light 10h 58m
Length of Day
10h 02m
Waning Gibbous, 68% of the Moon is Illuminated
Jan 22
Waning Gibbous
Jan 24
Last Quarter
Jan 30
New
Feb 6
First Quarter
Feb 15
Full

Hourly Weather History & Observations

Time (CET) Temp. Dew Point Humidity Pressure Visibility Wind Dir Wind Speed Gust Speed Precip Events Conditions
12:00 AM 53.6 °F 53.6 °F 100% 30.04 in 3.1 mi SW 15.0 mph - N/A Rain Light Rain
12:30 AM 55.4 °F 53.6 °F 94% 30.04 in 5.0 mi SW 17.3 mph - N/A   Light Drizzle
1:00 AM 54 °F 53 °F 95% 30.03 in 7 mi SSW 17.3 mph - - Rain Light Drizzle
1:00 AM 53.6 °F 53.6 °F 100% 30.01 in 6.2 mi SSW 16.1 mph - N/A   Light Drizzle
4:00 AM 55 °F 54 °F 96% 30.00 in 9 mi SW 2.3 mph - - Rain Light Drizzle
4:30 AM 55.4 °F 55.4 °F 100% 30.01 in 6.2 mi SW 1.2 mph - N/A   Mostly Cloudy
5:00 AM 53.6 °F 53.6 °F 100% 29.98 in 6.2 mi West 5.8 mph - N/A   Mostly Cloudy
5:30 AM 53.6 °F 51.8 °F 94% 30.01 in 6.2 mi WSW 5.8 mph - N/A   Mostly Cloudy
6:00 AM 51.8 °F 51.8 °F 100% 30.01 in 6.2 mi West 6.9 mph - N/A   Scattered Clouds
6:30 AM 51.8 °F 51.8 °F 100% 30.01 in 6.2 mi WSW 5.8 mph - N/A   Scattered Clouds
7:00 AM 51 °F 49 °F 92% 30.01 in 16 mi WSW 4.6 mph - -   Partly Cloudy
7:00 AM 50.0 °F 50.0 °F 100% 30.01 in 6.2 mi WSW 4.6 mph - N/A   Scattered Clouds
7:30 AM 50.0 °F 50.0 °F 100% 30.01 in 6.2 mi Variable 1.2 mph - N/A   Partly Cloudy
8:00 AM 48.2 °F 48.2 °F 100% 30.01 in 6.2 mi Calm Calm - N/A   Partly Cloudy
8:30 AM 50.0 °F 50.0 °F 100% 30.01 in 6.2 mi SW 4.6 mph - N/A   Partly Cloudy
9:00 AM 50.0 °F 50.0 °F 100% 30.04 in - WSW 4.6 mph - N/A   Clear
9:30 AM 50.0 °F 50.0 °F 100% 30.04 in - SW 5.8 mph - N/A   Clear
10:00 AM 51 °F 49 °F 89% 30.06 in 9 mi SW 4.6 mph - -   Scattered Clouds
10:00 AM 50.0 °F 50.0 °F 100% 30.04 in - SW 4.6 mph - N/A   Clear
10:30 AM 51.8 °F 50.0 °F 94% 30.04 in - SW 3.5 mph - N/A   Clear
11:00 AM 53.6 °F 51.8 °F 94% 30.06 in - SW 4.6 mph - N/A   Clear
11:30 AM 55.4 °F 51.8 °F 88% 30.06 in - Variable 2.3 mph - N/A   Clear
12:00 PM 57.2 °F 51.8 °F 82% 30.06 in - West 6.9 mph - N/A   Clear
12:30 PM 59.0 °F 51.8 °F 77% 30.04 in 6.2 mi West 8.1 mph - N/A   Partly Cloudy
1:00 PM 60 °F 50 °F 61% 30.05 in 12 mi West 8.1 mph - -   Scattered Clouds
1:00 PM 59.0 °F 51.8 °F 77% 30.04 in 6.2 mi West 6.9 mph - N/A   Partly Cloudy
1:30 PM 60.8 °F 51.8 °F 72% 30.04 in 6.2 mi WSW 6.9 mph - N/A   Partly Cloudy
2:00 PM 60.8 °F 51.8 °F 72% 30.01 in 6.2 mi West 9.2 mph - N/A   Partly Cloudy
2:30 PM 62.6 °F 48.2 °F 59% 30.01 in 6.2 mi NW 13.8 mph - N/A   Partly Cloudy
3:00 PM 60.8 °F 48.2 °F 63% 29.98 in 6.2 mi NW 12.7 mph - N/A   Scattered Clouds
3:30 PM 62.6 °F 48.2 °F 59% 29.98 in 6.2 mi WNW 12.7 mph - N/A   Scattered Clouds
4:00 PM 63 °F 48 °F 47% 30.00 in 19 mi WNW 13.8 mph - -   Partly Cloudy
4:00 PM 62.6 °F 48.2 °F 59% 29.98 in 6.2 mi WNW 12.7 mph - N/A   Partly Cloudy
4:30 PM 62.6 °F 48.2 °F 59% 29.98 in 6.2 mi NW 11.5 mph - N/A   Partly Cloudy
5:00 PM 60.8 °F 48.2 °F 63% 29.98 in 6.2 mi West 10.4 mph - N/A   Partly Cloudy
5:30 PM 62.6 °F 48.2 °F 59% 29.98 in 6.2 mi West 9.2 mph - N/A   Partly Cloudy
6:00 PM 60.8 °F 48.2 °F 63% 30.01 in 6.2 mi NW 13.8 mph - N/A   Partly Cloudy
6:30 PM 59.0 °F 48.2 °F 67% 30.01 in 6.2 mi NW 8.1 mph - N/A   Partly Cloudy
7:00 PM 58 °F 49 °F 65% 30.03 in 19 mi WNW 8.1 mph - -   Scattered Clouds
7:00 PM 59.0 °F 50.0 °F 72% 30.01 in 6.2 mi NW 6.9 mph - N/A   Partly Cloudy
7:30 PM 57.2 °F 50.0 °F 77% 30.04 in 6.2 mi NW 6.9 mph - N/A   Scattered Clouds
8:00 PM 57.2 °F 48.2 °F 72% 30.04 in 6.2 mi NW 8.1 mph - N/A   Partly Cloudy
8:30 PM 57.2 °F 48.2 °F 72% 30.04 in 6.2 mi NNW 8.1 mph - N/A   Partly Cloudy
9:00 PM 57.2 °F 46.4 °F 67% 30.06 in 6.2 mi NNW 8.1 mph - N/A   Scattered Clouds
9:30 PM 55.4 °F 48.2 °F 77% 30.06 in 6.2 mi NW 3.5 mph - N/A   Partly Cloudy
10:00 PM 55 °F 45 °F 60% 30.09 in 16 mi NNW 8.1 mph - -   Partly Cloudy
10:00 PM 55.4 °F 46.4 °F 72% 30.06 in 6.2 mi NNW 6.9 mph - N/A   Partly Cloudy
10:30 PM 53.6 °F 46.4 °F 77% 30.09 in 6.2 mi NNW 9.2 mph - N/A   Partly Cloudy
11:00 PM 51.8 °F 46.4 °F 82% 30.09 in 6.2 mi NW 3.5 mph - N/A   Partly Cloudy
11:30 PM 50.0 °F 44.6 °F 82% 30.09 in 6.2 mi WNW 4.6 mph - N/A   Partly Cloudy